Location: Kunchanapalle
(16.4623°N, 80.6176°E)
Time: 14:25:51
(UTC+00:00)

Cosmos-2242 - Pass Details

Date: 13 August 2020
Orbit: 590 x 618 km, 82.5° (Epoch: 24 September)

Event Time Altitude Azimuth Distance (km) Brightness Sun altitude
Rises 23:34:24 0° 191° (S) 2,852 6.2 -11.6°
Reaches altitude 10° 23:36:37 10° 194° (SSW) 1,954 5.3 -11.1°
Maximum altitude 23:40:54 62° 275° (W) 688 3.0 -10.1°
Drops below altitude 10° 23:45:13 10° 356° (N) 1,971 5.8 -9.1°
Sets 23:47:28 0° 360° (N) 2,880 6.7 -8.6°
